User: anonymous   Login
Location: ??
(31.9467°N, 34.8903°E)
Time: 21:37:51
(UTC+00:00)
Language:

Cosmos 1076 Rocket - Orbit

View from above orbital plane
View from above orbital plane
View from above satellite
View from above satellite

Ground track
Ground track

The orbit data is extracted from the following two-line orbital elements,

1 11267U 79011B   21016.57542783  .00000096  00000-0  74641-5 0  9998
2 11267  82.5242  73.1334 0016588 189.5784 170.5120 14.89000275249101
Epoch (UTC): 16 January 2021 13:48:36
Eccentricity: 0.0016588
inclination: 82.5242°
perigee height: 589 km
apogee height: 612 km
right ascension of ascending node: 73.1334°
argument of perigee: 189.5784°
revolutions per day: 14.89000275
mean anomaly at epoch: 170.5120°
orbit number at epoch: 24910

The dashed part of the orbit path shows where the satellite is in the earth's shadow,  

DLR